Weather History for PAAQ - November, 2012

Change the Weather History Date:

Sunday, November 25, 2012

  Actual Average Record
Temperature  
Mean Temperature 4 °F -  
Max Temperature 9 °F 25 °F 48 °F (2002)
Min Temperature 0 °F 10 °F -18 °F (1963)
Degree Days  
Heating Degree Days 60    
Moisture  
Dew Point 2 °F    
Average Humidity 86    
Maximum Humidity 92    
Minimum Humidity 80    
Precipitation  
Precipitation 0.00 in - - ()
Sea Level Pressure  
Sea Level Pressure 30.13 in    
Wind  
Wind Speed 0 mph (SE)    
Max Wind Speed 5 mph    
Max Gust Speed -    
Visibility 10 miles    
Events      
Averages and records for this station are not official NWS values.
T = Trace of Precipitation, MM = Missing Value Source: NWS Daily Summary

Daily Weather History Graph

Daily Weather History Graph

Search for Another Location

Airport or City:

Trip Planner

Search our weather history database for the weather conditions in past years. The results will help you decide how hot, cold, wet, or windy it might be!

Date:

Astronomy

Nov. 25, 2012 Rise Set
Actual Time 9:33 AM AKST 3:53 PM AKST
Civil Twilight 8:36 AM AKST 4:50 PM AKST
Nautical Twilight 7:38 AM AKST 5:47 PM AKST
Astronomical Twilight 6:46 AM AKST 6:40 PM AKST
Moon 2:47 PM AKST (11/25) 6:20 AM AKST (11/25)
Length of Visible Light 8h 14m
Length of Day
6h 20m
Waxing Gibbous, 93% of the Moon is Illuminated
Nov 25
Waxing Gibbous
Nov 28
Full
Dec 6
Last Quarter
Dec 12
New
Dec 19
First Quarter

Hourly Weather History & Observations

Time (AKST) Temp. Windchill Dew Point Humidity Pressure Visibility Wind Dir Wind Speed Gust Speed Precip Events Conditions
12:53 AM 6.1 °F - 3.0 °F 87% 30.04 in 10.0 mi Calm Calm - N/A   Clear
1:53 AM 3.9 °F - 1.0 °F 88% 30.04 in 10.0 mi Calm Calm - N/A   Clear
2:53 AM 5.0 °F - 1.9 °F 87% 30.05 in 10.0 mi Calm Calm - N/A   Clear
3:53 AM 5.0 °F -2.1 °F 1.0 °F 84% 30.06 in 10.0 mi ESE 3.5 mph - N/A   Clear
4:53 AM 3.9 °F - -0.0 °F 84% 30.06 in 10.0 mi Calm Calm - N/A   Clear
5:53 AM 5.0 °F - 1.0 °F 84% 30.07 in 10.0 mi Calm Calm - N/A   Clear
6:53 AM 5.0 °F - 1.0 °F 84% 30.08 in 10.0 mi Calm Calm - N/A   Clear
7:53 AM 3.9 °F - -0.0 °F 84% 30.09 in 10.0 mi Calm Calm - N/A   Clear
8:53 AM 3.0 °F - -2.0 °F 80% 30.09 in 10.0 mi Calm Calm - N/A   Clear
9:53 AM 3.0 °F - -0.9 °F 84% 30.11 in 9.0 mi Calm Calm - N/A   Clear
10:53 AM 3.0 °F - 1.0 °F 91% 30.12 in 10.0 mi Calm Calm - N/A   Clear
11:53 AM 6.1 °F - 1.9 °F 83% 30.14 in 10.0 mi Calm Calm - N/A   Clear
12:53 PM 8.1 °F - 6.1 °F 92% 30.14 in 10.0 mi Calm Calm - N/A   Clear
1:10 PM 8.6 °F - 6.8 °F 92% 30.12 in 10.0 mi Calm Calm - N/A   Partly Cloudy
1:53 PM 9.0 °F - 7.0 °F 92% 30.15 in 10.0 mi Calm Calm - N/A   Clear
2:53 PM 9.0 °F - 7.0 °F 92% 30.15 in 10.0 mi Calm Calm - N/A   Clear
3:53 PM 7.0 °F -1.7 °F 3.0 °F 84% 30.15 in 10.0 mi SE 4.6 mph - N/A   Clear
4:53 PM 6.1 °F - 3.0 °F 87% 30.16 in 10.0 mi Calm Calm - N/A   Clear
5:53 PM 6.1 °F - 1.0 °F 80% 30.16 in 10.0 mi Calm Calm - N/A   Clear
6:53 PM 5.0 °F - 1.9 °F 87% 30.17 in 10.0 mi Calm Calm - N/A   Clear
7:53 PM 3.0 °F - -0.9 °F 84% 30.19 in 10.0 mi Calm Calm - N/A   Clear
8:53 PM -0.0 °F - -4.0 °F 83% 30.19 in 10.0 mi Calm Calm - N/A   Clear
9:53 PM 1.0 °F - -0.9 °F 91% 30.21 in 10.0 mi Calm Calm - N/A   Clear
10:53 PM 3.0 °F - -0.9 °F 84% 30.23 in 10.0 mi Calm Calm - N/A   Clear
11:53 PM 3.9 °F - -0.0 °F 84% 30.24 in 10.0 mi Calm Calm - N/A   Clear